[[{"header":{"parameterUnit":"m.s-1","parameterCategory":1,"la1":30.2991,"la2":30.254,"lo1":-89.0895,"lo2":-89.0444,"dy":0.0017,"dx":0.0017,"nx":28,"ny":28,"refTime":"2025-08-20T03:00:00:Z","depth":0,"parameterNumber":2,"parameterNumberName":"U-component_of_WINDS"},"data":[0,0,0,0,0,0,0,0,0,0,0,0,0,0,0,0,0,0,0,0,0,0,0,0,0,0,0,0,0,0,0,0,0,0,0,0,0,0,0,0,0,0,0,0,0,0,0,0,0,0,0,0,0,0,0,0,0,0,0.5422,0.542,0,0.5284,0.5282,0.5281,0.5096,0.5093,0.509,0.5087,0.4956,0.4955,0.4954,0,0,0,0,0,0,0,0,0,0,0,0,0,0.5534,0.5533,0.5422,0.542,0.5419,0.5284,0.5282,0.528,0.5096,0.5092,0.5089,0.5085,0.4956,0.4955,0.4954,0,0,0,0,0,0,0,0,0,0,0,0,0,0.545,0.5533,0.5422,0.531,0.5299,0.5284,0.5282,0.528,0.5097,0.5092,0.5088,0.5083,0.4956,0.4955,0.4954,0.5042,0,0,0.4952,0.4951,0,0,0,0,0,0,0,0,0.5455,0.5446,0.5328,0.5318,0.5305,0.5202,0.5273,0.52,0.5098,0.5174,0.5087,0.5081,0.5042,0.5034,0.5018,0.5035,0.503,0.4951,0.4951,0.495,0.495,0,0,0,0,0,0,0,0.5461,0.5451,0.5367,0.5327,0.5313,0.5269,0.5252,0.5259,0.5136,0.5167,0.5153,0.5139,0.5035,0.502,0.5014,0.5028,0.4951,0.4951,0.495,0.495,0.5108,0.5112,0,0,0,0,0,0,0.5482,0.5457,0.5372,0.5363,0.537,0.5271,0.5252,0.524,0.5135,0.5115,0.5143,0.5131,0.5023,0.5015,0.5009,0.5103,0.495,0.495,0.4949,0.5103,0.5109,0.5114,0,0,0,0,0,0,0.5486,0.5477,0.5377,0.5406,0.539,0.5274,0.5262,0.524,0.5224,0.5117,0.5095,0.515,0.5019,0.501,0.5033,0.5096,0.4949,0.4948,0.5098,0.5105,0.5112,0.5294,0,0,0,0,0,0,0.549,0.5479,0.5509,0.5408,0.5389,0.5403,0.5266,0.524,0.5222,0.5205,0.5117,0.5099,0.5015,0.5036,0.5033,0.5092,0.4948,0.5092,0.5101,0.5109,0.5282,0.5306,0.5327,0,0,0,0,0,0.5494,0.5569,0.5512,0.5503,0.5425,0.5407,0.5397,0.5296,0.5228,0.5258,0.5189,0.5101,0.5089,0.504,0.5035,0.5095,0.5087,0.5098,0.5109,0.5272,0.5302,0.5327,0,0,0,0,0,0,0.5685,0.5554,0.5489,0.5533,0.5482,0.5376,0.5412,0.5331,0.5302,0.5287,0.5166,0.5148,0.5187,0.5143,0.509,0.5173,0.5075,0.5085,0.5201,0.5228,0.5251,0.5262,0.4947,0,0,0,0,0,0.5732,0.5725,0.5612,0.5662,0.5639,0.553,0.5519,0.5445,0.5389,0.5368,0.53,0.5252,0.5236,0.523,0.521,0.5273,0.5252,0.5312,0.5335,0.5354,0.5365,0.5395,0.542,0.5149,0.5149,0.5149,0,0,0.583,0.5757,0.5761,0.5698,0.565,0.5649,0.5514,0.5518,0.5517,0.5369,0.5386,0.5335,0.5273,0.5317,0.5333,0.5282,0.5435,0.5368,0.5384,0.5384,0.5408,0.5434,0.5457,0.5156,0.5155,0.5154,0,0,0.6007,0.5951,0.5985,0.5938,0.5865,0.5791,0.58,0.5704,0.5663,0.5677,0.5566,0.5564,0.554,0.55,0.5477,0.5634,0.5553,0.5631,0.5752,0.5782,0.5803,0.5822,0.5878,0.59,0.5642,0.5643,0.5643,0,0.6139,0.6128,0.6014,0.6023,0.5999,0.5861,0.5896,0.5857,0.5784,0.5771,0.5713,0.5678,0.5627,0.5659,0.5697,0.5682,0.569,0.5642,0.5809,0.5826,0.5842,0.5894,0.5916,0.5653,0.5652,0.5651,0.565,0,0.6294,0.6289,0.6326,0.6253,0.6232,0.6256,0.6146,0.614,0.6067,0.6,0.6016,0.5949,0.5912,0.5914,0.5845,0.5936,0.5906,0.583,0.573,0.5879,0.5927,0.5946,0.5667,0.5664,0.5661,0.5658,0,0,0.6592,0.6451,0.6467,0.6431,0.6338,0.6333,0.635,0.6309,0.6307,0.626,0.6272,0.6253,0.6181,0.6155,0.6079,0.6106,0.6235,0.6026,0.6023,0.6068,0.6332,0.6391,0.6416,0.6179,0.6182,0.6185,0.6337,0,0.6752,0.6769,0.6664,0.671,0.6704,0.6571,0.6585,0.6531,0.6468,0.6456,0.6387,0.6376,0.6282,0.6265,0.6285,0.6215,0.6287,0.6203,0.6192,0.6193,0.6213,0.644,0.6503,0.665,0.6355,0.6358,0.636,0,0.6942,0.69,0.6945,0.6847,0.684,0.6855,0.6808,0.6797,0.6734,0.6686,0.6655,0.6566,0.6577,0.6479,0.6494,0.6439,0.6428,0.6393,0.6397,0.6394,0.6288,0.6445,0.6694,0.6717,0.6388,0.6386,0.6384,0,0.7156,0.7111,0.713,0.7104,0.699,0.7004,0.6958,0.6888,0.687,0.6831,0.6818,0.6782,0.6763,0.6738,0.6643,0.658,0.6669,0.6564,0.6632,0.6635,0.6659,0.666,0.6912,0.665,0.665,0.6649,0.6649,0,0.7347,0.7379,0.7224,0.7237,0.7269,0.7149,0.7186,0.7127,0.7066,0.7066,0.695,0.6953,0.6826,0.6816,0.6742,0.6766,0.6758,0.6722,0.6702,0.6733,0.6738,0.6726,0.6714,0.6655,0.6654,0.6653,0.6652,0,0.7592,0.7489,0.7501,0.7391,0.7364,0.7393,0.7299,0.7308,0.7235,0.7238,0.7231,0.712,0.7102,0.7003,0.6964,0.6914,0.6965,0.6924,0.6986,0.6973,0.7048,0.7043,0.7303,0.7331,0.7051,0.7054,0.7056,0,0.7721,0.7742,0.7632,0.7622,0.7579,0.7565,0.7544,0.7427,0.741,0.7337,0.7355,0.7326,0.7297,0.7275,0.7193,0.7162,0.7121,0.7214,0.7116,0.7146,0.7123,0.7124,0.7126,0.7236,0.724,0.7243,0.7245,0,0.7962,0.7909,0.7881,0.7836,0.7813,0.7773,0.7726,0.7725,0.7594,0.7582,0.756,0.7537,0.7494,0.7468,0.7422,0.7377,0.7291,0.7276,0.729,0.7323,0.7358,0.7341,0.7045,0.7271,0.7269,0.7267,0.7265,0.7264,0.8154,0.8165,0.8088,0.8061,0.8012,0.797,0.7971,0.7897,0.7875,0.7828,0.776,0.7748,0.7682,0.761,0.7572,0.7562,0.7513,0.7534,0.7539,0.7547,0.7563,0.7358,0.7554,0.7553,0.7552,0.7551,0.7551,0,0.8389,0.8331,0.8307,0.8242,0.8221,0.8136,0.8078,0.8068,0.8056,0.8,0.7972,0.7947,0.792,0.7834,0.7799,0.7808,0.7767,0.7803,0.7802,0.7793,0.7609,0.76,0.7836,0.7836,0.7836,0.7836,0.7836,0.7836,0.8509,0.8524,0.8461,0.8451,0.8393,0.8376,0.8351,0.8312,0.8266,0.8241,0.8216,0.8159,0.8091,0.8049,0.8022,0.7997,0.7991,0.804,0.8003,0.7833,0.7806,0.778,0.7771,0.8039,0.8039,0.8188,0.8189,0.819]},{"header":{"parameterUnit":"m.s-1","parameterCategory":1,"la1":30.2991,"la2":30.254,"lo1":-89.0895,"lo2":-89.0444,"dy":0.0017,"dx":0.0017,"nx":28,"ny":28,"refTime":"2025-08-20T03:00:00:Z","depth":0,"parameterNumber":3,"parameterNumberName":"V-component_of_WINDS"},"data":[0,0,0,0,0,0,0,0,0,0,0,0,0,0,0,0,0,0,0,0,0,0,0,0,0,0,0,0,0,0,0,0,0,0,0,0,0,0,0,0,0,0,0,0,0,0,0,0,0,0,0,0,0,0,0,0,0,0,1.0493,1.049,0,1.0254,1.0251,1.0248,1.014,1.0141,1.0141,1.0141,0.9883,0.9876,0.9869,0,0,0,0,0,0,0,0,0,0,0,0,0,1.0842,1.0836,1.0493,1.049,1.0487,1.0254,1.0251,1.0247,1.014,1.0141,1.0141,1.0141,0.9885,0.9877,0.9868,0,0,0,0,0,0,0,0,0,0,0,0,0,1.0655,1.0834,1.0494,1.0406,1.0396,1.0255,1.0251,1.0246,1.014,1.0141,1.0141,1.0142,0.9888,0.9877,0.9867,0.9791,0,0,0.9834,0.9829,0,0,0,0,0,0,0,0,1.0665,1.0642,1.0422,1.0412,1.04,1.0228,1.0279,1.0093,1.014,1.0237,1.0141,1.0142,0.9996,0.9977,0.993,0.9779,0.9768,0.9833,0.9826,0.9822,0.9819,0,0,0,0,0,0,0,1.0679,1.0652,1.0398,1.0419,1.0405,1.0373,1.0347,1.0243,1.0116,1.0228,1.022,1.0194,0.999,0.9941,0.9923,0.9764,0.9833,0.9824,0.9817,0.9813,0.9532,0.9531,0,0,0,0,0,0,1.0708,1.0663,1.0405,1.0391,1.0537,1.0367,1.0338,1.0282,1.0117,1.0093,1.0194,1.019,0.9959,0.9936,0.9914,0.9812,0.9822,0.9812,0.9806,0.9533,0.9532,0.9531,0,0,0,0,0,0,1.0716,1.0686,1.0415,1.0525,1.0488,1.036,1.0299,1.0277,1.0228,1.0091,1.0067,1.0168,0.9958,0.9929,0.9822,0.9802,0.9807,0.9797,0.9534,0.9533,0.9531,0.961,0,0,0,0,0,0,1.0726,1.069,1.0664,1.0525,1.0483,1.0333,1.0298,1.0272,1.0211,1.0204,1.006,1.0037,0.9957,0.9839,0.9811,0.9787,0.9789,0.9536,0.9534,0.9532,0.9608,0.9611,0.9613,0,0,0,0,0,1.0739,1.0693,1.0663,1.0633,1.0448,1.0332,1.0307,1.022,1.021,1.018,1.0091,1.0041,0.9808,0.9829,0.9797,0.9769,0.9537,0.9534,0.9532,0.9607,0.961,0.9613,0,0,0,0,0,0,1.083,1.0674,1.0639,1.0548,1.0454,1.0315,1.0275,1.0226,1.0131,1.0127,1.0018,0.9986,0.9888,0.9817,0.9843,0.9684,0.9667,0.9659,0.9735,0.9737,0.9739,0.9759,0.978,0,0,0,0,0,1.084,1.0763,1.0629,1.0561,1.0516,1.0404,1.035,1.029,1.0187,1.0146,1.005,0.9948,0.9851,0.9789,0.9693,0.9596,0.9561,0.956,0.9563,0.9566,0.956,0.9499,0.9496,0.9524,0.9524,0.9524,0,0,1.0858,1.0764,1.0722,1.0577,1.0498,1.0416,1.0371,1.0287,1.0224,1.0132,1.0027,0.9951,0.9829,0.9727,0.9677,0.9665,0.9544,0.9563,0.9566,0.9558,0.9496,0.9494,0.9492,0.9522,0.9522,0.9523,0,0,1.0851,1.0773,1.0707,1.0629,1.051,1.0435,1.0419,1.0285,1.0233,1.0126,1.0054,0.9973,0.981,0.9726,0.9661,0.9617,0.9565,0.9587,0.9601,0.9543,0.9541,0.9538,0.9521,0.9516,0.9581,0.9582,0.9582,0,1.0889,1.0768,1.0678,1.0598,1.0535,1.045,1.0379,1.0305,1.0159,1.0115,1.0104,0.9895,0.9807,0.9682,0.9671,0.9622,0.9596,0.9605,0.9549,0.9546,0.9542,0.9524,0.9518,0.9585,0.9585,0.9584,0.9584,0,1.0818,1.0735,1.0695,1.0561,1.0491,1.0416,1.031,1.0249,1.0194,1.0118,1.0006,0.9897,0.9776,0.9741,0.9685,0.9606,0.9602,0.9572,0.9553,0.9545,0.9525,0.9518,0.959,0.9589,0.9588,0.9587,0,0,1.0865,1.0681,1.0667,1.0604,1.0464,1.0395,1.0312,1.0198,1.0147,1.0047,0.9973,0.9834,0.9804,0.9731,0.9663,0.9613,0.9581,0.9587,0.9582,0.959,0.9484,0.9509,0.9502,0.9546,0.9544,0.9543,0.9494,0,1.0839,1.0695,1.0609,1.0497,1.0416,1.0331,1.0258,1.0162,1.0087,1.0003,0.9917,0.9821,0.979,0.9744,0.969,0.9597,0.9559,0.9599,0.9471,0.9468,0.9507,0.9493,0.9519,0.9479,0.9486,0.9484,0.9483,0,1.0791,1.0697,1.0578,1.0445,1.0407,1.0345,1.023,1.0152,1.0038,0.9986,0.9903,0.9835,0.9739,0.9726,0.9589,0.9619,0.956,0.9505,0.9501,0.9487,0.9477,0.9477,0.9464,0.9458,0.9471,0.9472,0.9473,0,1.0836,1.0679,1.0587,1.0534,1.0377,1.0334,1.0265,1.0152,1.0087,0.9984,0.994,0.9826,0.9763,0.9674,0.9574,0.9575,0.9446,0.9426,0.9397,0.9399,0.9375,0.9378,0.9352,0.9337,0.9337,0.9337,0.9337,0,1.0816,1.0747,1.0605,1.0549,1.0466,1.0364,1.0283,1.0206,1.0105,1.0028,0.9945,0.9873,0.9746,0.9657,0.9577,0.9474,0.9446,0.9398,0.9378,0.9406,0.9412,0.9367,0.9368,0.9335,0.9335,0.9336,0.9336,0,1.0854,1.0757,1.0651,1.051,1.0473,1.0418,1.0294,1.0233,1.0152,1.0055,1.0026,0.9897,0.9787,0.9679,0.953,0.9476,0.9373,0.9346,0.9414,0.9403,0.938,0.9384,0.9325,0.9311,0.9306,0.9306,0.9306,0,1.0849,1.0794,1.0647,1.0592,1.0526,1.0437,1.0371,1.0266,1.0199,1.0062,1.0016,0.9901,0.9803,0.963,0.952,0.9404,0.9373,0.936,0.9355,0.9384,0.9372,0.9377,0.9369,0.9364,0.9364,0.9365,0.9365,0,1.0849,1.0803,1.0714,1.0605,1.0529,1.0438,1.0343,1.03,1.0175,1.0103,0.9992,0.9916,0.9764,0.9649,0.952,0.9442,0.9381,0.9367,0.9354,0.9383,0.9425,0.9401,0.9423,0.937,0.9369,0.9369,0.9369,0.9368,1.0865,1.0811,1.0699,1.06,1.0518,1.043,1.0366,1.0277,1.0184,1.0056,0.9996,0.9884,0.9764,0.9585,0.9508,0.9414,0.9398,0.938,0.9375,0.9372,0.9378,0.9439,0.9389,0.9389,0.9389,0.9388,0.9388,0,1.086,1.0784,1.0694,1.0565,1.0486,1.0439,1.0329,1.0265,1.0168,1.0064,0.997,0.9839,0.9726,0.9606,0.9484,0.9431,0.94,0.9403,0.9406,0.9388,0.9399,0.9423,0.943,0.943,0.943,0.943,0.943,0.943,1.0849,1.0755,1.0694,1.0556,1.0477,1.037,1.0311,1.0227,1.0144,1.0004,0.9911,0.9834,0.9722,0.959,0.9482,0.9449,0.9407,0.9418,0.9377,0.939,0.9388,0.9385,0.9407,0.941,0.941,0.9373,0.9373,0.9373]}]]